User: anonymous   Login
Location: Unspecified
(0.0000°N, 0.0000°E)
Time: 14:51:44
(UTC+02:00)
Language:

YAOGAN 1 - Orbit

View from above orbital plane
View from above orbital plane
View from above satellite
View from above satellite

Ground track
Ground track

The orbit data is extracted from the following two-line orbital elements,

1 29092U 06015A   15245.53827284  .00000189  00000-0  30261-4 0  9994
2 29092  97.9998 245.3384 0001471  91.1025  21.4510 14.82458250505513
Epoch (UTC): 02 September 2015 12:55:06
Eccentricity: 0.0001471
inclination: 97.9998°
perigee height: 620 km
apogee height: 622 km
right ascension of ascending node: 245.3384°
argument of perigee: 91.1025°
revolutions per day: 14.82458250
mean anomaly at epoch: 21.4510°
orbit number at epoch: 50551

The dashed part of the orbit path shows where the satellite is in the earth's shadow,  

DLR